Starlink 11186

operational
NORAD ID: 60070 Int'l Des: 2024-113 Owner: SPXS Country: US Constellation: starlink
LEOCIRCULAR

About Starlink 11186

Description loading...

Live Position

Loading 3D Globe...

Upcoming Passes

Altitude History

Altitude vs Time

uPlot chart will show altitude changes over time

Two-Line Element Set

1 60070U 24113M 25304.73235138 -.00000875 00000-0 -23592-5 0 9998
2 60070 53.1573 107.1696 0001574 90.0688 270.0511 15.69677601 79715
Epoch: Oct 31, 2025 • Age: 23 hours

Current Status

Altitude 367.1 km
Velocity 7.69 km/s
Sub-Earth Point -23.33°S, 156.94°E
Launch Date Jun 19, 2024
Age 1.3 years
Type internet

Technical Details

Classification Payload
Mass 960.00 kg
Dry Mass 910.00 kg
Total Mass 960.00 kg
Length 0.30 m
Diameter 4.10 m
Span 29.00 m
Shape Box + pan
Manufacturer SPXS
Bus Type Starlink V2MD
Phase Status In Orbit
Owner/State SPXS/US

Large Constellations

Loading constellations...